Location: Mauna Kea VIS
(19.7591°N, 155.4561°W)
Time: 23:29:10
(UTC-10:00)

BlueWalker 3 - Pass Details

Date: 12 December 2025
Orbit: 451 x 463 km, 53.2° (Epoch: 18 January)

Event Time Altitude Azimuth Distance (km) Brightness Sun altitude
Rises 18:21:24 0° 318° (NW) 2,483 5.8 -8.8°
Reaches altitude 10° 18:23:34 10° 314° (NW) 1,607 4.8 -9.3°
Maximum altitude 18:27:08 58° 235° (SW) 538 2.4 -10.1°
Drops below altitude 10° 18:30:41 10° 155° (SSE) 1,600 4.4 -10.9°
Sets 18:32:50 0° 151° (SSE) 2,472 5.4 -11.3°
